Location: ?????????
(55.6553°N, 38.9075°E)
Time: 15:20:20
(UTC+00:00)

SL-16 R/B - Pass Details

Date: 18 October 2019
Orbit: 842 x 846 km, 71.0° (Epoch: 21 November)

Event Time Altitude Azimuth Distance (km) Brightness Sun altitude
Exits shadow 03:17:04 - 296° (WNW) 2,786 4.3 -6.8°
Reaches altitude 10° 03:18:14 10° 305° (NW) 2,477 4.1 -6.6°
Maximum altitude 03:22:08 19° 348° (NNW) 1,946 3.9 -6.1°
Drops below altitude 10° 03:26:02 10° 32° (NNE) 2,481 5.0 -5.5°
Sets 03:29:18 0° 50° (NE) 3,418 6.0 -5.1°
